This is the latest recevied weather packets stored in our database for station/object N4BBA. If no packets are shown the sender has not sent any weather packets the latest 10 day(s).
| Time | Temp. | Humidity | Pressure | Rain* | Wind** | Luminosity | Snow |
|---|---|---|---|---|---|---|---|
| 1777924666 | 26.11° C | 33% | 1013.4 hPa | 0 mm | - | 547 W/m² | - |
| 1777924362 | 26.11° C | 34% | 1013.5 hPa | 0 mm | - | 605 W/m² | - |
| 1777924059 | 26.11° C | 34% | 1013.6 hPa | 0 mm | - | 607 W/m² | - |
| 1777923755 | 26.67° C | 35% | 1013.5 hPa | 0 mm | - | 631 W/m² | - |
| 1777923452 | 26.11° C | 35% | 1013.5 hPa | 0 mm | - | 611 W/m² | - |
| 1777923149 | 26.11° C | 35% | 1013.8 hPa | 0 mm | - | 615 W/m² | - |
| 1777922847 | 26.11° C | 33% | 1013.7 hPa | 0 mm | - | 635 W/m² | - |
| 1777922545 | 26.11° C | 33% | 1013.8 hPa | 0 mm | - | 622 W/m² | - |
| 1777922244 | 26.11° C | 32% | 1013.8 hPa | 0 mm | - | 644 W/m² | - |
| 1777921940 | 26.11° C | 31% | 1014 hPa | 0 mm | - | 650 W/m² | - |
| 1777921635 | 26.11° C | 32% | 1013.8 hPa | 0 mm | - | 650 W/m² | - |
| 1777921332 | 26.11° C | 32% | 1013.7 hPa | 0 mm | - | 682 W/m² | - |
| 1777921029 | 25.56° C | 33% | 1014 hPa | 0 mm | - | 700 W/m² | - |
| 1777920725 | 25.56° C | 33% | 1014.2 hPa | 0 mm | - | 724 W/m² | - |
| 1777920421 | 25.56° C | 33% | 1014.2 hPa | 0 mm | - | 739 W/m² | - |
| 1777920117 | 25.56° C | 33% | 1014.2 hPa | 0 mm | - | 756 W/m² | - |
| 1777919814 | 25.56° C | 34% | 1014.2 hPa | 0 mm | - | 766 W/m² | - |
| 1777919511 | 25.56° C | 33% | 1014.1 hPa | 0 mm | - | 784 W/m² | - |
| 1777919209 | 25.56° C | 34% | 1014.2 hPa | 0 mm | - | 784 W/m² | - |
| 1777918906 | 26.11° C | 35% | 1014.3 hPa | 0 mm | - | 796 W/m² | - |
| 1777918603 | 25.56° C | 35% | 1014.3 hPa | 0 mm | - | 806 W/m² | - |
| 1777918301 | 25° C | 35% | 1014.4 hPa | 0 mm | - | 810 W/m² | - |
| 1777918000 | 25° C | 38% | 1014.3 hPa | 0 mm | - | 813 W/m² | - |
| 1777917698 | 25.56° C | 37% | 1014.5 hPa | 0 mm | - | 817 W/m² | - |
| 1777917395 | 25° C | 37% | 1014.8 hPa | 0 mm | - | 818 W/m² | - |
* Rain latest hour (hover to see other rain measurements)
** Current wind speed in m/s (hover to see current wind gust speed)